Location: Unspecified
(0.0000°N, 0.0000°E)
Time: 13:22:32
(UTC+00:00)

LightSail 2 - Pass Details

Date: 17 August 2019
Orbit: 701 x 732 km, 24.0° (Epoch: 21 August)

Event Time Altitude Azimuth Distance (km) Brightness Sun altitude
Rises 20:18:42 0° 288° (WNW) 3,072 9.5 -32.6°
Reaches altitude 10° 20:22:54 10° 321° (NW) 2,148 8.2 -33.6°
Maximum altitude 20:24:35 12° 341° (NNW) 2,044 7.8 -34.0°
Enters shadow 20:25:18 11° 349° (N) 2,063 7.8 -34.2°
